| time (UTC) | temp C | wind direction | speed KPH | gust KPH | rain 1hr cm | rain 24hr cm | rain mn cm | humidity % | barometer mb |
| 20260509043515 | 10 | 178 | 0.0 | 3.2 | 0.00 | 0.43 | 0.00 | 94 | 1007.4 |
| 20260509043035 | 10 | 185 | 0.0 | 3.2 | 0.00 | 0.43 | 0.00 | 94 | 1007.4 |
| 20260509042512 | 10 | 195 | 0.0 | 3.2 | 0.00 | 0.43 | 0.00 | 94 | 1007.5 |
| 20260509042012 | 10 | 186 | 0.0 | 3.2 | 0.00 | 0.43 | 0.00 | 94 | 1007.4 |
| 20260509041515 | 10 | 186 | 0.0 | 3.2 | 0.00 | 0.43 | 0.00 | 94 | 1007.5 |
| 20260509041013 | 10 | 175 | 0.0 | 4.8 | 0.00 | 0.43 | 0.00 | 94 | 1007.4 |
| 20260509040511 | 10 | 175 | 0.0 | 4.8 | 0.00 | 0.43 | 0.00 | 94 | 1007.4 |
| 20260509040011 | 10 | 173 | 0.0 | 1.6 | 0.00 | 0.43 | 0.00 | 93 | 1007.4 |
| 20260509035512 | 11 | 176 | 0.0 | 3.2 | 0.00 | 0.43 | 0.43 | 93 | 1007.5 |
| 20260509035009 | 11 | 162 | 0.0 | 3.2 | 0.00 | 0.43 | 0.43 | 93 | 1007.5 |
| 20260509034509 | 11 | 162 | 0.0 | 3.2 | 0.00 | 0.43 | 0.43 | 93 | 1007.6 |
| 20260509034008 | 11 | 163 | 0.0 | 3.2 | 0.00 | 0.43 | 0.43 | 93 | 1007.7 |
| 20260509033513 | 11 | 168 | 0.0 | 3.2 | 0.00 | 0.43 | 0.43 | 93 | 1007.8 |
| 20260509033009 | 11 | 175 | 0.0 | 1.6 | 0.00 | 0.43 | 0.43 | 93 | 1007.8 |
| 20260509032509 | 11 | 172 | 0.0 | 1.6 | 0.00 | 0.43 | 0.43 | 93 | 1007.8 |
| 20260509032009 | 11 | 172 | 0.0 | 1.6 | 0.00 | 0.43 | 0.43 | 93 | 1007.8 |
| 20260509031511 | 11 | 172 | 0.0 | 1.6 | 0.00 | 0.43 | 0.43 | 92 | 1007.9 |
| 20260509031009 | 11 | 172 | 0.0 | 1.6 | 0.00 | 0.43 | 0.43 | 92 | 1008.0 |
| 20260509030508 | 11 | 172 | 0.0 | 3.2 | 0.00 | 0.43 | 0.43 | 92 | 1008.0 |
| 20260509030008 | 11 | 176 | 0.0 | 1.6 | 0.00 | 0.43 | 0.43 | 92 | 1008.0 |
| 20260509025508 | 11 | 177 | 0.0 | 1.6 | 0.00 | 0.46 | 0.43 | 92 | 1008.0 |
| 20260509025011 | 11 | 171 | 0.0 | 1.6 | 0.00 | 0.46 | 0.43 | 92 | 1007.9 |
| 20260509024510 | 11 | 172 | 0.0 | 1.6 | 0.00 | 0.46 | 0.43 | 92 | 1008.0 |
| 20260509024008 | 11 | 178 | 0.0 | 1.6 | 0.00 | 0.46 | 0.43 | 91 | 1007.9 |
| 20260509023507 | 12 | 183 | 0.0 | 3.2 | 0.00 | 0.46 | 0.43 | 92 | 1007.9 |
| 20260509023006 | 12 | 184 | 0.0 | 3.2 | 0.00 | 0.46 | 0.43 | 92 | 1008.0 |
| 20260509022508 | 12 | 184 | 0.0 | 8.0 | 0.00 | 0.46 | 0.43 | 91 | 1007.9 |
| 20260509022007 | 12 | 199 | 3.2 | 9.7 | 0.00 | 0.46 | 0.43 | 91 | 1007.9 |
| 20260509021507 | 12 | 206 | 3.2 | 11.3 | 0.00 | 0.46 | 0.43 | 92 | 1007.9 |
| 20260509021007 | 12 | 203 | 4.8 | 11.3 | 0.00 | 0.46 | 0.43 | 91 | 1007.9 |
| 20260509020506 | 12 | 205 | 6.4 | 11.3 | 0.00 | 0.46 | 0.43 | 91 | 1007.9 |
| 20260509020006 | 12 | 207 | 3.2 | 11.3 | 0.00 | 0.46 | 0.43 | 91 | 1007.8 |
| 20260509015507 | 12 | 203 | 4.8 | 11.3 | 0.00 | 0.46 | 0.43 | 91 | 1007.9 |
| 20260509015006 | 12 | 198 | 3.2 | 9.7 | 0.00 | 0.46 | 0.43 | 91 | 1007.9 |
| 20260509014517 | 12 | 194 | 4.8 | 12.9 | 0.00 | 0.46 | 0.43 | 90 | 1007.9 |
| 20260509014006 | 12 | 202 | 6.4 | 14.5 | 0.00 | 0.46 | 0.43 | 90 | 1007.8 |
| 20260509013509 | 12 | 204 | 6.4 | 16.1 | 0.00 | 0.46 | 0.43 | 90 | 1007.8 |
| 20260509013006 | 12 | 207 | 9.7 | 16.1 | 0.00 | 0.46 | 0.43 | 90 | 1007.7 |
| 20260509012505 | 12 | 186 | 8.0 | 17.7 | 0.00 | 0.46 | 0.43 | 90 | 1007.7 |
| 20260509012005 | 12 | 230 | 9.7 | 16.1 | 0.00 | 0.46 | 0.43 | 90 | 1007.7 |
| 20260509011506 | 12 | 201 | 9.7 | 20.9 | 0.00 | 0.46 | 0.43 | 90 | 1007.7 |
| 20260509011008 | 13 | 205 | 6.4 | 16.1 | 0.00 | 0.46 | 0.43 | 89 | 1007.7 |
| 20260509010504 | 13 | 210 | 8.0 | 19.3 | 0.00 | 0.46 | 0.43 | 90 | 1007.7 |
| 20260509010005 | 13 | 203 | 9.7 | 19.3 | 0.00 | 0.46 | 0.43 | 90 | 1007.6 |
| 20260509005504 | 13 | 197 | 9.7 | 14.5 | 0.00 | 0.46 | 0.43 | 89 | 1007.6 |
| 20260509005003 | 13 | 213 | 9.7 | 14.5 | 0.00 | 0.46 | 0.43 | 89 | 1007.5 |
| 20260509004503 | 13 | 209 | 9.7 | 14.5 | 0.00 | 0.46 | 0.43 | 89 | 1007.6 |
| 20260509004003 | 13 | 197 | 9.7 | 17.7 | 0.00 | 0.46 | 0.43 | 89 | 1007.6 |
| 20260509003504 | 13 | 209 | 9.7 | 20.9 | 0.00 | 0.46 | 0.43 | 89 | 1007.5 |
| 20260509003003 | 13 | 207 | 11.3 | 20.9 | 0.00 | 0.46 | 0.43 | 89 | 1007.5 |
| 20260509002503 | 13 | 203 | 9.7 | 20.9 | 0.00 | 0.46 | 0.43 | 89 | 1007.6 |
| 20260509002003 | 13 | 202 | 11.3 | 17.7 | 0.00 | 0.46 | 0.43 | 89 | 1007.7 |
| 20260509001502 | 13 | 214 | 11.3 | 19.3 | 0.00 | 0.46 | 0.43 | 88 | 1007.7 |
| 20260509001003 | 13 | 187 | 11.3 | 19.3 | 0.00 | 0.46 | 0.43 | 88 | 1007.7 |
| 20260509000600 | 13 | 201 | 6.4 | 14.5 | 0.00 | 0.46 | 0.43 | 88 | 1007.7 |
| 20260509000104 | 13 | 211 | 8.0 | 16.1 | 0.00 | 0.46 | 0.43 | 88 | 1007.8 |
| 20260508235600 | 14 | 211 | 8.0 | 16.1 | 0.00 | 0.46 | 0.43 | 88 | 1007.8 |
| 20260508235100 | 14 | 210 | 8.0 | 12.9 | 0.00 | 0.46 | 0.43 | 88 | 1007.8 |
| 20260508234604 | 14 | 216 | 6.4 | 12.9 | 0.00 | 0.46 | 0.43 | 88 | 1007.9 |
| 20260508234059 | 14 | 209 | 9.7 | 12.9 | 0.00 | 0.46 | 0.43 | 88 | 1007.9 |
| 20260508233600 | 14 | 213 | 8.0 | 16.1 | 0.00 | 0.46 | 0.43 | 87 | 1007.8 |
| 20260508233115 | 14 | 202 | 9.7 | 17.7 | 0.00 | 0.46 | 0.43 | 87 | 1007.8 |
| 20260508232558 | 14 | 203 | 6.4 | 17.7 | 0.00 | 0.46 | 0.43 | 87 | 1007.8 |
| 20260508232058 | 14 | 205 | 11.3 | 19.3 | 0.00 | 0.46 | 0.43 | 86 | 1007.9 |
| 20260508231603 | 14 | 211 | 9.7 | 20.9 | 0.00 | 0.46 | 0.43 | 86 | 1007.8 |
| 20260508231058 | 14 | 208 | 9.7 | 19.3 | 0.00 | 0.46 | 0.43 | 86 | 1007.8 |
| 20260508230559 | 14 | 174 | 9.7 | 19.3 | 0.00 | 0.46 | 0.43 | 86 | 1007.8 |
| 20260508230057 | 14 | 216 | 11.3 | 20.9 | 0.00 | 0.46 | 0.43 | 86 | 1007.9 |
| 20260508225557 | 14 | 201 | 14.5 | 20.9 | 0.00 | 0.46 | 0.43 | 87 | 1007.8 |
| 20260508225059 | 14 | 209 | 11.3 | 22.5 | 0.00 | 0.46 | 0.43 | 87 | 1007.8 |
| 20260508224558 | 14 | 211 | 8.0 | 22.5 | 0.00 | 0.46 | 0.43 | 86 | 1007.9 |
| 20260508224056 | 14 | 207 | 11.3 | 25.7 | 0.00 | 0.46 | 0.43 | 86 | 1007.9 |
| 20260508223557 | 14 | 215 | 14.5 | 25.7 | 0.00 | 0.46 | 0.43 | 87 | 1008.0 |
| 20260508223056 | 14 | 214 | 9.7 | 16.1 | 0.00 | 0.46 | 0.43 | 87 | 1008.0 |
| 20260508222557 | 14 | 209 | 9.7 | 24.1 | 0.00 | 0.46 | 0.43 | 88 | 1008.1 |
| 20260508222058 | 14 | 231 | 14.5 | 24.1 | 0.00 | 0.46 | 0.43 | 87 | 1008.2 |
| 20260508221559 | 14 | 202 | 12.9 | 30.6 | 0.00 | 0.46 | 0.43 | 88 | 1008.2 |
| 20260508221056 | 14 | 216 | 16.1 | 30.6 | 0.00 | 0.46 | 0.43 | 88 | 1008.2 |
| 20260508220558 | 14 | 201 | 12.9 | 25.7 | 0.00 | 0.46 | 0.43 | 89 | 1008.0 |
| 20260508220056 | 14 | 214 | 17.7 | 25.7 | 0.00 | 0.46 | 0.43 | 89 | 1008.1 |
| 20260508215556 | 14 | 205 | 14.5 | 25.7 | 0.00 | 0.46 | 0.43 | 89 | 1007.9 |
| 20260508215055 | 14 | 208 | 14.5 | 27.4 | 0.00 | 0.46 | 0.43 | 89 | 1007.9 |
| 20260508214555 | 14 | 191 | 16.1 | 27.4 | 0.00 | 0.46 | 0.43 | 89 | 1007.9 |
| 20260508214054 | 14 | 210 | 16.1 | 25.7 | 0.00 | 0.46 | 0.43 | 89 | 1007.9 |
| 20260508213554 | 14 | 209 | 17.7 | 29.0 | 0.00 | 0.46 | 0.43 | 89 | 1007.9 |
| 20260508213057 | 14 | 170 | 14.5 | 29.0 | 0.00 | 0.46 | 0.43 | 89 | 1008.0 |
| 20260508212553 | 14 | 177 | 12.9 | 27.4 | 0.00 | 0.46 | 0.43 | 89 | 1008.1 |
| 20260508212053 | 14 | 203 | 11.3 | 27.4 | 0.00 | 0.46 | 0.43 | 89 | 1008.1 |
| 20260508211553 | 14 | 205 | 11.3 | 24.1 | 0.03 | 0.46 | 0.43 | 89 | 1008.1 |
| 20260508211051 | 14 | 204 | 11.3 | 17.7 | 0.03 | 0.46 | 0.43 | 89 | 1008.2 |
| 20260508210552 | 13 | 210 | 8.0 | 17.7 | 0.03 | 0.46 | 0.43 | 89 | 1008.3 |
| 20260508210051 | 13 | 233 | 8.0 | 17.7 | 0.03 | 0.46 | 0.43 | 88 | 1008.4 |
| 20260508205549 | 13 | 223 | 8.0 | 12.9 | 0.03 | 0.46 | 0.43 | 88 | 1008.5 |
| 20260508205048 | 13 | 210 | 9.7 | 17.7 | 0.03 | 0.46 | 0.43 | 88 | 1008.5 |
| 20260508204548 | 13 | 218 | 11.3 | 24.1 | 0.05 | 0.46 | 0.43 | 88 | 1008.4 |
| 20260508204050 | 13 | 220 | 16.1 | 24.1 | 0.05 | 0.46 | 0.43 | 88 | 1008.5 |
| 20260508203548 | 13 | 183 | 12.9 | 27.4 | 0.05 | 0.46 | 0.43 | 89 | 1008.4 |
| 20260508203048 | 13 | 191 | 16.1 | 27.4 | 0.08 | 0.46 | 0.43 | 89 | 1008.5 |
| 20260508202552 | 13 | 195 | 16.1 | 27.4 | 0.08 | 0.46 | 0.43 | 90 | 1008.4 |
| 20260508202047 | 13 | 208 | 8.0 | 22.5 | 0.08 | 0.46 | 0.43 | 89 | 1008.6 |
| 20260508201546 | 13 | 204 | 14.5 | 22.5 | 0.05 | 0.43 | 0.41 | 88 | 1008.7 |
| 20260508201045 | 13 | 209 | 12.9 | 22.5 | 0.05 | 0.43 | 0.41 | 88 | 1008.8 |
| 20260508200544 | 13 | 206 | 11.3 | 22.5 | 0.05 | 0.43 | 0.41 | 87 | 1009.0 |
| 20260508200043 | 13 | 222 | 16.1 | 22.5 | 0.05 | 0.43 | 0.41 | 86 | 1009.2 |
| 20260508195543 | 13 | 222 | 14.5 | 20.9 | 0.05 | 0.43 | 0.41 | 85 | 1009.3 |
| 20260508195044 | 13 | 236 | 9.7 | 17.7 | 0.03 | 0.41 | 0.38 | 84 | 1009.3 |
| 20260508194556 | 13 | 234 | 11.3 | 24.1 | 0.03 | 0.41 | 0.38 | 82 | 1009.4 |
| 20260508194042 | 13 | 219 | 12.9 | 29.0 | 0.03 | 0.41 | 0.38 | 80 | 1009.4 |
| 20260508193544 | 14 | 256 | 16.1 | 29.0 | 0.03 | 0.41 | 0.38 | 78 | 1009.4 |
| 20260508193042 | 14 | 241 | 17.7 | 29.0 | 0.00 | 0.38 | 0.36 | 76 | 1009.4 |
| 20260508192543 | 15 | 250 | 12.9 | 35.4 | 0.00 | 0.38 | 0.36 | 75 | 1009.4 |
| 20260508192045 | 15 | 224 | 17.7 | 35.4 | 0.00 | 0.38 | 0.36 | 74 | 1009.4 |
| 20260508191547 | 15 | 249 | 20.9 | 35.4 | 0.00 | 0.38 | 0.36 | 72 | 1009.3 |
| 20260508191042 | 16 | 216 | 19.3 | 30.6 | 0.00 | 0.38 | 0.36 | 72 | 1009.3 |
| 20260508190541 | 16 | 235 | 16.1 | 27.4 | 0.00 | 0.38 | 0.36 | 73 | 1009.3 |
| 20260508190100 | 16 | 239 | 14.5 | 27.4 | 0.00 | 0.38 | 0.36 | 72 | 1009.3 |
| 20260508185540 | 16 | 208 | 16.1 | 29.0 | 0.00 | 0.38 | 0.36 | 70 | 1009.3 |
| 20260508185040 | 16 | 251 | 17.7 | 29.0 | 0.00 | 0.38 | 0.36 | 69 | 1009.4 |
| 20260508184542 | 16 | 211 | 11.3 | 20.9 | 0.00 | 0.38 | 0.36 | 69 | 1009.5 |
| 20260508184039 | 16 | 224 | 11.3 | 20.9 | 0.00 | 0.38 | 0.36 | 68 | 1009.4 |
| 20260508183538 | 16 | 267 | 14.5 | 27.4 | 0.00 | 0.38 | 0.36 | 68 | 1009.5 |
| 20260508183042 | 16 | 239 | 14.5 | 27.4 | 0.00 | 0.38 | 0.36 | 67 | 1009.5 |
| 20260508182538 | 16 | 252 | 12.9 | 25.7 | 0.00 | 0.38 | 0.36 | 68 | 1009.6 |
| 20260508182037 | 16 | 210 | 11.3 | 25.7 | 0.00 | 0.38 | 0.36 | 68 | 1009.7 |
| 20260508181544 | 16 | 203 | 11.3 | 25.7 | 0.00 | 0.38 | 0.36 | 67 | 1009.8 |
| 20260508181036 | 16 | 253 | 12.9 | 25.7 | 0.00 | 0.38 | 0.36 | 66 | 1009.9 |
| 20260508180539 | 16 | 231 | 14.5 | 29.0 | 0.00 | 0.38 | 0.36 | 66 | 1010.0 |
| 20260508180036 | 16 | 253 | 14.5 | 27.4 | 0.00 | 0.38 | 0.36 | 67 | 1010.0 |
| 20260508175533 | 16 | 268 | 16.1 | 30.6 | 0.00 | 0.38 | 0.36 | 65 | 1010.1 |
| 20260508175034 | 16 | 252 | 17.7 | 30.6 | 0.00 | 0.38 | 0.36 | 64 | 1010.1 |
| 20260508174537 | 16 | 205 | 16.1 | 27.4 | 0.00 | 0.38 | 0.36 | 66 | 1010.1 |
| 20260508174032 | 16 | 286 | 8.0 | 22.5 | 0.00 | 0.38 | 0.36 | 67 | 1010.2 |
| 20260508173533 | 16 | 189 | 6.4 | 12.9 | 0.00 | 0.38 | 0.36 | 68 | 1010.2 |
| 20260508173031 | 16 | 256 | 8.0 | 16.1 | 0.00 | 0.38 | 0.36 | 69 | 1010.3 |
| 20260508172532 | 16 | 203 | 6.4 | 16.1 | 0.00 | 0.38 | 0.36 | 70 | 1010.4 |
| 20260508172028 | 16 | 169 | 8.0 | 19.3 | 0.00 | 0.38 | 0.36 | 73 | 1010.4 |
| 20260508171527 | 16 | 187 | 4.8 | 19.3 | 0.00 | 0.38 | 0.36 | 75 | 1010.5 |
| 20260508171025 | 15 | 245 | 6.4 | 11.3 | 0.00 | 0.38 | 0.36 | 77 | 1010.5 |
| 20260508170525 | 15 | 173 | 0.0 | 11.3 | 0.00 | 0.38 | 0.36 | 74 | 1010.7 |
| 20260508170023 | 15 | 206 | 4.8 | 11.3 | 0.00 | 0.38 | 0.36 | 77 | 1010.8 |
| 20260508165522 | 14 | 188 | 4.8 | 12.9 | 0.00 | 0.38 | 0.36 | 77 | 1010.9 |
| 20260508165020 | 13 | 238 | 8.0 | 16.1 | 0.00 | 0.38 | 0.36 | 76 | 1011.1 |
| 20260508164519 | 13 | 209 | 11.3 | 16.1 | 0.00 | 0.38 | 0.36 | 76 | 1011.2 |
| 20260508164017 | 13 | 212 | 9.7 | 12.9 | 0.00 | 0.38 | 0.36 | 78 | 1011.3 |
| 20260508163517 | 13 | 180 | 3.2 | 12.9 | 0.00 | 0.38 | 0.36 | 80 | 1011.3 |
| 20260508163017 | 13 | 212 | 8.0 | 19.3 | 0.00 | 0.38 | 0.36 | 80 | 1011.4 |
| 20260508162516 | 13 | 211 | 11.3 | 19.3 | 0.00 | 0.38 | 0.36 | 80 | 1011.5 |
| 20260508162018 | 13 | 201 | 9.7 | 17.7 | 0.00 | 0.38 | 0.36 | 81 | 1011.7 |
| 20260508161525 | 13 | 197 | 4.8 | 14.5 | 0.00 | 0.38 | 0.36 | 83 | 1011.6 |
| 20260508161013 | 12 | 188 | 4.8 | 12.9 | 0.00 | 0.38 | 0.36 | 83 | 1011.6 |
| 20260508160511 | 12 | 211 | 4.8 | 12.9 | 0.00 | 0.38 | 0.36 | 83 | 1011.6 |
| 20260508160012 | 12 | 193 | 6.4 | 14.5 | 0.00 | 0.38 | 0.36 | 83 | 1011.7 |
| 20260508155511 | 12 | 216 | 9.7 | 24.1 | 0.00 | 0.38 | 0.36 | 82 | 1011.7 |
| 20260508155012 | 12 | 182 | 12.9 | 24.1 | 0.00 | 0.38 | 0.36 | 83 | 1011.9 |
| 20260508154511 | 12 | 199 | 8.0 | 25.7 | 0.00 | 0.38 | 0.36 | 83 | 1011.9 |
| 20260508154014 | 12 | 192 | 11.3 | 25.7 | 0.00 | 0.38 | 0.36 | 84 | 1011.8 |
| 20260508153511 | 12 | 211 | 6.4 | 17.7 | 0.00 | 0.38 | 0.36 | 84 | 1011.6 |
| 20260508153017 | 12 | 180 | 6.4 | 24.1 | 0.00 | 0.38 | 0.36 | 86 | 1011.7 |
| 20260508152508 | 12 | 167 | 11.3 | 24.1 | 0.00 | 0.38 | 0.36 | 87 | 1011.7 |
| 20260508152008 | 12 | 201 | 11.3 | 20.9 | 0.00 | 0.38 | 0.36 | 88 | 1011.7 |
| 20260508151506 | 12 | 181 | 9.7 | 19.3 | 0.00 | 0.38 | 0.36 | 89 | 1011.7 |
| 20260508151006 | 11 | 189 | 4.8 | 17.7 | 0.00 | 0.38 | 0.36 | 90 | 1011.7 |
| 20260508150503 | 11 | 202 | 6.4 | 19.3 | 0.00 | 0.38 | 0.36 | 91 | 1011.8 |
| 20260508150003 | 11 | 197 | 9.7 | 16.1 | 0.00 | 0.38 | 0.36 | 92 | 1011.8 |
| 20260508145501 | 11 | 177 | 4.8 | 12.9 | 0.03 | 0.38 | 0.36 | 92 | 1011.9 |
| 20260508145101 | 10 | 221 | 4.8 | 12.9 | 0.08 | 0.38 | 0.36 | 93 | 1012.0 |
| 20260508144558 | 10 | 189 | 3.2 | 11.3 | 0.10 | 0.38 | 0.36 | 93 | 1012.0 |
| 20260508144058 | 10 | 200 | 6.4 | 11.3 | 0.13 | 0.38 | 0.36 | 93 | 1012.1 |
| 20260508143558 | 10 | 184 | 1.6 | 9.7 | 0.15 | 0.38 | 0.36 | 93 | 1012.1 |
| 20260508143117 | 10 | 203 | 3.2 | 9.7 | 0.18 | 0.38 | 0.36 | 93 | 1012.2 |
| 20260508142557 | 10 | 196 | 4.8 | 11.3 | 0.20 | 0.38 | 0.36 | 93 | 1012.3 |
| 20260508142057 | 9 | 204 | 4.8 | 16.1 | 0.23 | 0.38 | 0.36 | 93 | 1012.3 |
| 20260508141604 | 9 | 187 | 8.0 | 16.1 | 0.23 | 0.38 | 0.36 | 92 | 1012.4 |
| 20260508141053 | 9 | 207 | 9.7 | 16.1 | 0.23 | 0.38 | 0.36 | 92 | 1012.5 |
| 20260508140553 | 9 | 207 | 9.7 | 16.1 | 0.23 | 0.38 | 0.36 | 92 | 1012.7 |
| 20260508140112 | 9 | 206 | 8.0 | 14.5 | 0.23 | 0.38 | 0.36 | 92 | 1012.7 |
| 20260508135554 | 9 | 205 | 1.6 | 9.7 | 0.20 | 0.36 | 0.33 | 92 | 1012.6 |
| 20260508135053 | 9 | 201 | 1.6 | 11.3 | 0.18 | 0.30 | 0.28 | 92 | 1012.5 |
| 20260508134554 | 9 | 222 | 8.0 | 11.3 | 0.15 | 0.28 | 0.25 | 92 | 1012.8 |
| 20260508134051 | 9 | 228 | 6.4 | 11.3 | 0.15 | 0.25 | 0.23 | 91 | 1012.9 |
| 20260508133552 | 9 | 216 | 4.8 | 9.7 | 0.15 | 0.23 | 0.20 | 91 | 1012.9 |
| 20260508133052 | 9 | 222 | 1.6 | 8.0 | 0.10 | 0.18 | 0.15 | 91 | 1012.9 |
| 20260508132552 | 9 | 248 | 4.8 | 8.0 | 0.13 | 0.18 | 0.15 | 91 | 1012.9 |
| 20260508132051 | 9 | 278 | 3.2 | 6.4 | 0.10 | 0.15 | 0.13 | 91 | 1012.8 |
| 20260508131550 | 9 | 272 | 0.0 | 6.4 | 0.10 | 0.15 | 0.13 | 91 | 1012.4 |
| 20260508131051 | 9 | 254 | 1.6 | 6.4 | 0.10 | 0.15 | 0.13 | 90 | 1012.3 |
| 20260508130549 | 9 | 204 | 3.2 | 6.4 | 0.10 | 0.15 | 0.13 | 90 | 1012.2 |
| 20260508130048 | 9 | 189 | 3.2 | 11.3 | 0.10 | 0.15 | 0.13 | 89 | 1012.1 |
| 20260508125548 | 10 | 199 | 4.8 | 12.9 | 0.10 | 0.15 | 0.13 | 89 | 1012.2 |
| 20260508125048 | 10 | 216 | 8.0 | 12.9 | 0.08 | 0.13 | 0.10 | 89 | 1012.3 |
| 20260508124548 | 10 | 204 | 4.8 | 11.3 | 0.08 | 0.13 | 0.10 | 88 | 1012.2 |
| 20260508124048 | 10 | 221 | 8.0 | 11.3 | 0.05 | 0.10 | 0.08 | 88 | 1012.4 |
| 20260508123548 | 10 | 213 | 6.4 | 14.5 | 0.03 | 0.08 | 0.05 | 87 | 1012.5 |
| 20260508123049 | 10 | 234 | 9.7 | 17.7 | 0.03 | 0.08 | 0.05 | 87 | 1012.4 |
| 20260508122547 | 10 | 195 | 11.3 | 17.7 | 0.00 | 0.05 | 0.03 | 86 | 1012.4 |
| 20260508122047 | 10 | 228 | 11.3 | 16.1 | 0.00 | 0.05 | 0.03 | 86 | 1012.4 |
| 20260508121548 | 10 | 248 | 11.3 | 16.1 | 0.00 | 0.05 | 0.03 | 85 | 1012.4 |
| 20260508121047 | 10 | 209 | 11.3 | 20.9 | 0.00 | 0.05 | 0.03 | 85 | 1012.2 |
| 20260508120545 | 10 | 226 | 9.7 | 20.9 | 0.00 | 0.05 | 0.03 | 84 | 1012.3 |
| 20260508120051 | 10 | 238 | 11.3 | 17.7 | 0.00 | 0.05 | 0.03 | 83 | 1012.3 |
| 20260508115548 | 10 | 214 | 9.7 | 17.7 | 0.00 | 0.05 | 0.03 | 83 | 1012.2 |
| 20260508115049 | 10 | 230 | 9.7 | 16.1 | 0.00 | 0.05 | 0.03 | 83 | 1012.1 |
| 20260508114549 | 10 | 244 | 8.0 | 16.1 | 0.00 | 0.05 | 0.03 | 82 | 1012.1 |
| 20260508114045 | 10 | 213 | 9.7 | 19.3 | 0.00 | 0.05 | 0.03 | 82 | 1012.1 |
| 20260508113544 | 10 | 239 | 12.9 | 19.3 | 0.00 | 0.05 | 0.03 | 82 | 1012.0 |
| 20260508113044 | 10 | 240 | 9.7 | 19.3 | 0.00 | 0.05 | 0.03 | 81 | 1012.0 |
| 20260508112546 | 10 | 244 | 8.0 | 22.5 | 0.00 | 0.05 | 0.03 | 81 | 1011.9 |
| 20260508112043 | 10 | 223 | 14.5 | 22.5 | 0.00 | 0.05 | 0.03 | 80 | 1011.8 |
| 20260508111544 | 10 | 222 | 12.9 | 19.3 | 0.00 | 0.05 | 0.03 | 80 | 1011.9 |
| 20260508111041 | 10 | 219 | 12.9 | 19.3 | 0.00 | 0.05 | 0.03 | 80 | 1011.8 |
| 20260508110541 | 10 | 232 | 9.7 | 19.3 | 0.00 | 0.05 | 0.03 | 80 | 1011.8 |
| 20260508110039 | 10 | 223 | 11.3 | 19.3 | 0.00 | 0.05 | 0.03 | 80 | 1011.8 |
| 20260508105540 | 10 | 229 | 11.3 | 20.9 | 0.00 | 0.05 | 0.03 | 80 | 1011.7 |
| 20260508105041 | 10 | 244 | 12.9 | 29.0 | 0.00 | 0.05 | 0.03 | 80 | 1011.8 |
| 20260508104539 | 10 | 204 | 11.3 | 29.0 | 0.00 | 0.05 | 0.03 | 80 | 1011.7 |
| 20260508104040 | 10 | 216 | 14.5 | 24.1 | 0.00 | 0.05 | 0.03 | 80 | 1011.8 |
| 20260508103538 | 10 | 253 | 9.7 | 19.3 | 0.00 | 0.05 | 0.03 | 80 | 1011.8 |
| 20260508103045 | 10 | 247 | 11.3 | 16.1 | 0.00 | 0.05 | 0.03 | 80 | 1011.7 |
| 20260508102537 | 10 | 235 | 11.3 | 16.1 | 0.00 | 0.05 | 0.03 | 80 | 1011.7 |
| 20260508102037 | 10 | 236 | 8.0 | 24.1 | 0.00 | 0.05 | 0.03 | 80 | 1011.7 |
| 20260508101537 | 10 | 218 | 11.3 | 24.1 | 0.00 | 0.05 | 0.03 | 80 | 1011.7 |
| 20260508101038 | 10 | 258 | 11.3 | 17.7 | 0.00 | 0.05 | 0.03 | 79 | 1011.7 |
| 20260508100536 | 10 | 226 | 9.7 | 19.3 | 0.00 | 0.05 | 0.03 | 79 | 1011.7 |
| 20260508100056 | 10 | 207 | 8.0 | 24.1 | 0.00 | 0.05 | 0.03 | 79 | 1011.7 |
| 20260508095536 | 10 | 251 | 11.3 | 24.1 | 0.00 | 0.05 | 0.03 | 78 | 1011.7 |
| 20260508095037 | 10 | 211 | 12.9 | 25.7 | 0.00 | 0.05 | 0.03 | 78 | 1011.6 |
| 20260508094541 | 10 | 220 | 14.5 | 29.0 | 0.00 | 0.05 | 0.03 | 78 | 1011.6 |
| 20260508094035 | 10 | 214 | 14.5 | 29.0 | 0.00 | 0.05 | 0.03 | 78 | 1011.7 |
| 20260508093537 | 10 | 243 | 11.3 | 29.0 | 0.00 | 0.05 | 0.03 | 78 | 1011.8 |
| 20260508093038 | 10 | 211 | 19.3 | 29.0 | 0.00 | 0.05 | 0.03 | 78 | 1011.8 |
| 20260508092534 | 10 | 231 | 16.1 | 33.8 | 0.00 | 0.05 | 0.03 | 79 | 1012.0 |
| 20260508092032 | 10 | 236 | 16.1 | 33.8 | 0.00 | 0.05 | 0.03 | 80 | 1012.0 |
| 20260508091533 | 10 | 219 | 17.7 | 24.1 | 0.00 | 0.05 | 0.03 | 81 | 1012.0 |
| 20260508091033 | 10 | 196 | 14.5 | 24.1 | 0.00 | 0.05 | 0.03 | 81 | 1011.9 |
| 20260508090531 | 10 | 211 | 14.5 | 24.1 | 0.00 | 0.05 | 0.03 | 82 | 1012.0 |
| 20260508090039 | 10 | 219 | 11.3 | 22.5 | 0.00 | 0.05 | 0.03 | 82 | 1012.1 |
| 20260508085528 | 10 | 220 | 9.7 | 17.7 | 0.00 | 0.05 | 0.03 | 82 | 1012.0 |
| 20260508085029 | 10 | 210 | 11.3 | 19.3 | 0.00 | 0.05 | 0.03 | 82 | 1011.9 |
| 20260508084528 | 10 | 214 | 11.3 | 19.3 | 0.00 | 0.05 | 0.03 | 82 | 1012.0 |
| 20260508084028 | 10 | 217 | 9.7 | 19.3 | 0.00 | 0.05 | 0.03 | 82 | 1011.8 |
| 20260508083528 | 9 | 245 | 9.7 | 19.3 | 0.03 | 0.05 | 0.03 | 82 | 1011.8 |
| 20260508083027 | 9 | 224 | 11.3 | 19.3 | 0.03 | 0.05 | 0.03 | 83 | 1011.7 |
| 20260508082526 | 9 | 224 | 9.7 | 19.3 | 0.03 | 0.05 | 0.03 | 83 | 1011.8 |
| 20260508082026 | 9 | 245 | 12.9 | 22.5 | 0.03 | 0.05 | 0.03 | 83 | 1011.8 |
| 20260508081524 | 9 | 207 | 11.3 | 17.7 | 0.03 | 0.05 | 0.03 | 84 | 1011.8 |
| 20260508081027 | 9 | 218 | 11.3 | 19.3 | 0.03 | 0.05 | 0.03 | 84 | 1011.9 |
| 20260508080522 | 8 | 207 | 9.7 | 19.3 | 0.03 | 0.05 | 0.03 | 85 | 1011.8 |
| 20260508080021 | 8 | 227 | 9.7 | 20.9 | 0.03 | 0.05 | 0.03 | 86 | 1011.8 |
| 20260508075520 | 8 | 230 | 12.9 | 20.9 | 0.03 | 0.05 | 0.03 | 87 | 1011.9 |
| 20260508075020 | 8 | 229 | 9.7 | 19.3 | 0.03 | 0.05 | 0.03 | 87 | 1011.9 |
| 20260508074518 | 8 | 217 | 11.3 | 19.3 | 0.03 | 0.05 | 0.03 | 88 | 1011.9 |
| 20260508074018 | 7 | 204 | 12.9 | 19.3 | 0.03 | 0.05 | 0.03 | 89 | 1011.9 |
| 20260508073516 | 7 | 210 | 9.7 | 14.5 | 0.00 | 0.03 | 0.00 | 90 | 1011.9 |
| 20260508073014 | 7 | 214 | 11.3 | 17.7 | 0.00 | 0.03 | 0.00 | 91 | 1012.1 |
| 20260508072516 | 7 | 216 | 9.7 | 16.1 | 0.00 | 0.03 | 0.00 | 91 | 1012.0 |
| 20260508072017 | 7 | 223 | 8.0 | 14.5 | 0.00 | 0.03 | 0.00 | 92 | 1012.0 |
| 20260508071514 | 7 | 215 | 9.7 | 14.5 | 0.00 | 0.03 | 0.00 | 92 | 1012.0 |
| 20260508071010 | 6 | 203 | 6.4 | 11.3 | 0.00 | 0.03 | 0.00 | 92 | 1012.0 |
| 20260508070513 | 6 | 205 | 3.2 | 11.3 | 0.00 | 0.03 | 0.00 | 91 | 1011.9 |
| 20260508070011 | 6 | 188 | 3.2 | 11.3 | 0.00 | 0.03 | 0.00 | 91 | 1011.9 |
| 20260508065510 | 6 | 193 | 1.6 | 4.8 | 0.00 | 0.03 | 0.00 | 91 | 1012.0 |
| 20260508065015 | 6 | 190 | 0.0 | 3.2 | 0.00 | 0.03 | 0.00 | 91 | 1012.1 |
| 20260508064510 | 6 | 187 | 1.6 | 3.2 | 0.00 | 0.03 | 0.00 | 91 | 1012.2 |
| 20260508064011 | 6 | 187 | 0.0 | 3.2 | 0.00 | 0.03 | 0.00 | 91 | 1012.1 |
| 20260508063508 | 6 | 195 | 0.0 | 4.8 | 0.00 | 0.03 | 0.00 | 91 | 1012.2 |
| 20260508063008 | 6 | 186 | 0.0 | 4.8 | 0.00 | 0.03 | 0.00 | 91 | 1012.1 |
| 20260508062507 | 7 | 192 | 1.6 | 6.4 | 0.00 | 0.03 | 0.00 | 91 | 1012.2 |
| 20260508062007 | 7 | 199 | 1.6 | 6.4 | 0.00 | 0.03 | 0.00 | 91 | 1012.2 |
| 20260508061508 | 7 | 187 | 1.6 | 8.0 | 0.00 | 0.03 | 0.00 | 91 | 1012.2 |
| 20260508061007 | 7 | 203 | 4.8 | 11.3 | 0.00 | 0.03 | 0.00 | 91 | 1012.2 |
| 20260508060505 | 7 | 180 | 1.6 | 9.7 | 0.00 | 0.03 | 0.00 | 91 | 1012.2 |
| 20260508060006 | 7 | 189 | 1.6 | 8.0 | 0.00 | 0.03 | 0.00 | 91 | 1012.3 |
| 20260508055504 | 7 | 201 | 1.6 | 8.0 | 0.00 | 0.03 | 0.00 | 91 | 1012.4 |
| 20260508055006 | 7 | 192 | 1.6 | 9.7 | 0.00 | 0.03 | 0.00 | 91 | 1012.4 |
| 20260508054514 | 7 | 197 | 1.6 | 9.7 | 0.00 | 0.03 | 0.00 | 91 | 1012.4 |
| 20260508054003 | 7 | 191 | 3.2 | 8.0 | 0.00 | 0.03 | 0.00 | 91 | 1012.4 |
| 20260508053502 | 7 | 200 | 3.2 | 9.7 | 0.00 | 0.03 | 0.00 | 92 | 1012.4 |
| 20260508053002 | 7 | 197 | 3.2 | 9.7 | 0.00 | 0.03 | 0.00 | 92 | 1012.4 |
| 20260508052504 | 7 | 201 | 4.8 | 6.4 | 0.00 | 0.03 | 0.00 | 92 | 1012.5 |
| 20260508052002 | 6 | 202 | 3.2 | 6.4 | 0.00 | 0.03 | 0.00 | 92 | 1012.6 |
| 20260508051501 | 6 | 197 | 3.2 | 6.4 | 0.00 | 0.03 | 0.00 | 92 | 1012.6 |
| 20260508051001 | 6 | 200 | 3.2 | 6.4 | 0.00 | 0.03 | 0.00 | 92 | 1012.6 |
| 20260508050600 | 6 | 195 | 4.8 | 6.4 | 0.00 | 0.03 | 0.00 | 92 | 1012.6 |
| 20260508045559 | 7 | 178 | 0.0 | 6.4 | 0.00 | 0.03 | 0.00 | 92 | 1012.5 |
| 20260508045002 | 6 | 184 | 3.2 | 6.4 | 0.00 | 0.03 | 0.00 | 93 | 1012.5 |
| 20260508044559 | 6 | 191 | 1.6 | 6.4 | 0.00 | 0.03 | 0.00 | 92 | 1012.5 |
| 20260508044101 | 6 | 181 | 0.0 | 4.8 | 0.00 | 0.03 | 0.00 | 92 | 1012.5 |